Year,Month,Day,Hour,Minute,Value (Times are PST for windspeed in km/hr)
2021,07,14,00,00,8.60
2021,07,14,00,01,8.10
2021,07,14,00,02,9.70
2021,07,14,00,03,10.10
2021,07,14,00,04,8.60
2021,07,14,00,05,9.40
2021,07,14,00,06,8.20
2021,07,14,00,07,7.40
2021,07,14,00,08,7.40
2021,07,14,00,09,7.70
2021,07,14,00,10,7.10
2021,07,14,00,11,6.30
2021,07,14,00,12,2.70
2021,07,14,00,13,6.60
2021,07,14,00,14,6.50
2021,07,14,00,15,8.00
2021,07,14,00,16,6.10
2021,07,14,00,17,9.20
2021,07,14,00,18,6.80
2021,07,14,00,19,9.50
2021,07,14,00,20,8.20
2021,07,14,00,21,9.40
2021,07,14,00,22,8.60
2021,07,14,00,23,7.00
2021,07,14,00,24,9.80
2021,07,14,00,25,9.20
2021,07,14,00,26,8.70
2021,07,14,00,27,6.80
2021,07,14,00,28,6.30
2021,07,14,00,29,6.50
2021,07,14,00,30,6.70
2021,07,14,00,31,7.70
2021,07,14,00,32,8.00
2021,07,14,00,33,7.20
2021,07,14,00,34,8.40
2021,07,14,00,35,7.60
2021,07,14,00,36,6.20
2021,07,14,00,37,7.40
2021,07,14,00,38,7.20
2021,07,14,00,39,7.60
2021,07,14,00,40,6.60
2021,07,14,00,41,6.60
2021,07,14,00,42,6.70
2021,07,14,00,43,7.90
2021,07,14,00,44,8.10
2021,07,14,00,45,8.70
2021,07,14,00,46,10.00
2021,07,14,00,47,9.90
2021,07,14,00,48,9.70
2021,07,14,00,49,8.50
2021,07,14,00,50,9.00
2021,07,14,00,51,8.80
2021,07,14,00,52,10.60
2021,07,14,00,53,9.70
2021,07,14,00,54,8.70
2021,07,14,00,55,8.90
2021,07,14,00,56,7.30
2021,07,14,00,57,7.50
2021,07,14,00,58,8.70
2021,07,14,00,59,8.60
2021,07,14,01,00,6.10
2021,07,14,01,01,4.80
2021,07,14,01,02,7.80
2021,07,14,01,03,7.70
2021,07,14,01,04,8.10
2021,07,14,01,05,8.10
2021,07,14,01,06,9.90
2021,07,14,01,07,7.90
2021,07,14,01,08,8.70
2021,07,14,01,09,7.90
2021,07,14,01,10,8.90
2021,07,14,01,11,8.40
2021,07,14,01,12,8.40
2021,07,14,01,13,8.40
2021,07,14,01,14,9.00
2021,07,14,01,15,8.90
2021,07,14,01,16,9.00
2021,07,14,01,17,10.10
2021,07,14,01,18,9.40
2021,07,14,01,19,8.70
2021,07,14,01,20,8.60
2021,07,14,01,21,10.80
2021,07,14,01,22,8.80
2021,07,14,01,23,8.90
2021,07,14,01,24,8.60
2021,07,14,01,25,8.40
2021,07,14,01,26,8.50
2021,07,14,01,27,7.20
2021,07,14,01,28,8.20
2021,07,14,01,29,6.30
2021,07,14,01,30,5.40
2021,07,14,01,31,4.30
2021,07,14,01,32,7.70
2021,07,14,01,33,8.50
2021,07,14,01,34,9.70
2021,07,14,01,35,8.40
2021,07,14,01,36,10.20
2021,07,14,01,37,8.50
2021,07,14,01,38,10.60
2021,07,14,01,39,8.10
2021,07,14,01,40,8.20
2021,07,14,01,41,8.60
2021,07,14,01,42,8.70
2021,07,14,01,43,8.90
2021,07,14,01,44,8.40
2021,07,14,01,45,8.10
2021,07,14,01,46,7.60
2021,07,14,01,47,6.50
2021,07,14,01,48,5.90
2021,07,14,01,49,8.90
2021,07,14,01,50,7.00
2021,07,14,01,51,7.70
2021,07,14,01,52,8.10
2021,07,14,01,53,8.30
2021,07,14,01,54,7.10
2021,07,14,01,55,6.80
2021,07,14,01,56,9.20
2021,07,14,01,57,7.90
2021,07,14,01,58,7.00
2021,07,14,01,59,6.80
2021,07,14,02,00,7.60
2021,07,14,02,01,8.30
2021,07,14,02,02,4.50
2021,07,14,02,03,5.10
2021,07,14,02,04,6.90
2021,07,14,02,05,4.90
2021,07,14,02,06,3.90
2021,07,14,02,07,3.60
2021,07,14,02,08,7.80
2021,07,14,02,09,7.60
2021,07,14,02,10,7.10
2021,07,14,02,11,6.00
2021,07,14,02,12,6.60
2021,07,14,02,13,7.50
2021,07,14,02,14,7.10
2021,07,14,02,15,8.20
2021,07,14,02,16,7.70
2021,07,14,02,17,7.60
2021,07,14,02,18,7.30
2021,07,14,02,19,7.30
2021,07,14,02,20,6.20
2021,07,14,02,21,5.50
2021,07,14,02,22,4.50
2021,07,14,02,23,5.30
2021,07,14,02,24,4.30
2021,07,14,02,25,4.00
2021,07,14,02,26,3.80
2021,07,14,02,27,6.60
2021,07,14,02,28,5.70
2021,07,14,02,29,5.20
2021,07,14,02,30,4.50
2021,07,14,02,31,5.40
2021,07,14,02,32,4.70
2021,07,14,02,33,8.20
2021,07,14,02,34,8.30
2021,07,14,02,35,6.20
2021,07,14,02,36,6.80
2021,07,14,02,37,7.30
2021,07,14,02,38,7.10
2021,07,14,02,39,7.10
2021,07,14,02,40,7.30
2021,07,14,02,41,6.80
2021,07,14,02,42,7.60
2021,07,14,02,43,8.50
2021,07,14,02,44,7.50
2021,07,14,02,45,6.40
2021,07,14,02,46,7.60
2021,07,14,02,47,4.90
2021,07,14,02,48,3.70
2021,07,14,02,49,7.20
2021,07,14,02,50,6.20
2021,07,14,02,51,5.40
2021,07,14,02,52,7.60
2021,07,14,02,53,5.00
2021,07,14,02,54,6.60
2021,07,14,02,55,5.30
2021,07,14,02,56,7.10
2021,07,14,02,57,7.30
2021,07,14,02,58,4.90
2021,07,14,02,59,4.50
2021,07,14,03,00,6.40
2021,07,14,03,01,6.90
2021,07,14,03,02,6.10
2021,07,14,03,03,2.00
2021,07,14,03,04,3.80
2021,07,14,03,05,6.80
2021,07,14,03,06,5.00
2021,07,14,03,07,8.00
2021,07,14,03,08,5.60
2021,07,14,03,09,5.80
2021,07,14,03,10,7.60
2021,07,14,03,11,6.20
2021,07,14,03,12,7.00
2021,07,14,03,13,8.40
2021,07,14,03,14,6.30
2021,07,14,03,15,6.60
2021,07,14,03,16,7.50
2021,07,14,03,17,6.10
2021,07,14,03,18,7.00
2021,07,14,03,19,7.10
2021,07,14,03,20,8.40
2021,07,14,03,21,7.00
2021,07,14,03,22,6.80
2021,07,14,03,23,6.40
2021,07,14,03,24,7.90
2021,07,14,03,25,7.00
2021,07,14,03,26,6.20
2021,07,14,03,27,8.10
2021,07,14,03,28,7.10
2021,07,14,03,29,7.70
2021,07,14,03,30,6.80
2021,07,14,03,31,6.60
2021,07,14,03,32,5.70
2021,07,14,03,33,6.00
2021,07,14,03,34,5.60
2021,07,14,03,35,5.70
2021,07,14,03,36,2.40
2021,07,14,03,37,0.90
2021,07,14,03,38,1.40
2021,07,14,03,39,3.30
2021,07,14,03,40,3.00
2021,07,14,03,41,3.00
2021,07,14,03,42,4.50
2021,07,14,03,43,7.10
2021,07,14,03,44,4.50
2021,07,14,03,45,3.20
2021,07,14,03,46,4.00
2021,07,14,03,47,5.20
2021,07,14,03,48,3.20
2021,07,14,03,49,2.40
2021,07,14,03,50,3.30
2021,07,14,03,51,5.00
2021,07,14,03,52,2.90
2021,07,14,03,53,2.20
2021,07,14,03,54,1.10
2021,07,14,03,55,1.50
2021,07,14,03,56,0.70
2021,07,14,03,57,2.00
2021,07,14,03,58,0.90
2021,07,14,03,59,1.70
2021,07,14,04,00,1.70
2021,07,14,04,01,2.60
2021,07,14,04,02,1.60
2021,07,14,04,03,4.10
2021,07,14,04,04,4.10
2021,07,14,04,05,5.10
2021,07,14,04,06,3.80
2021,07,14,04,07,3.60
2021,07,14,04,08,2.80
2021,07,14,04,09,3.40
2021,07,14,04,10,6.50
2021,07,14,04,11,5.80
2021,07,14,04,12,5.40
2021,07,14,04,13,5.90
2021,07,14,04,14,6.50
2021,07,14,04,15,3.80
2021,07,14,04,16,2.70
2021,07,14,04,17,3.50
2021,07,14,04,18,4.50
2021,07,14,04,19,3.70
2021,07,14,04,20,2.20
2021,07,14,04,21,4.00
2021,07,14,04,22,0.80
2021,07,14,04,23,0.20
2021,07,14,04,24,0.00
2021,07,14,04,25,0.00
2021,07,14,04,26,0.40
2021,07,14,04,27,1.50
2021,07,14,04,28,0.50
2021,07,14,04,29,0.70
2021,07,14,04,30,2.70
2021,07,14,04,31,2.50
2021,07,14,04,32,3.10
2021,07,14,04,33,5.00
2021,07,14,04,34,1.70
2021,07,14,04,35,4.00
2021,07,14,04,36,3.50
2021,07,14,04,37,4.30
2021,07,14,04,38,3.50
2021,07,14,04,39,3.90
2021,07,14,04,40,5.00
2021,07,14,04,41,5.20
2021,07,14,04,42,2.50
2021,07,14,04,43,2.50
2021,07,14,04,44,2.20
2021,07,14,04,45,1.20
2021,07,14,04,46,1.70
2021,07,14,04,47,0.20
2021,07,14,04,48,3.40
2021,07,14,04,49,3.00
2021,07,14,04,50,1.40
2021,07,14,04,51,0.50
2021,07,14,04,52,0.00
2021,07,14,04,53,1.00
2021,07,14,04,54,0.40
2021,07,14,04,55,0.10
2021,07,14,04,56,0.90
2021,07,14,04,57,0.40
2021,07,14,04,58,0.20
2021,07,14,04,59,0.10
2021,07,14,05,00,0.90
2021,07,14,05,01,0.70
2021,07,14,05,02,0.10
2021,07,14,05,03,0.50
2021,07,14,05,04,0.10
2021,07,14,05,05,0.00
2021,07,14,05,06,0.10
2021,07,14,05,07,0.80
2021,07,14,05,08,3.30
2021,07,14,05,09,3.00
2021,07,14,05,10,2.00
2021,07,14,05,11,3.80
2021,07,14,05,12,2.20
2021,07,14,05,13,2.70
2021,07,14,05,14,3.70
2021,07,14,05,15,4.80
2021,07,14,05,16,3.80
2021,07,14,05,17,4.80
2021,07,14,05,18,5.90
2021,07,14,05,19,4.60
2021,07,14,05,20,6.40
2021,07,14,05,21,5.80
2021,07,14,05,22,5.10
2021,07,14,05,23,6.30
2021,07,14,05,24,5.10
2021,07,14,05,25,4.40
2021,07,14,05,26,4.00
2021,07,14,05,27,0.70
2021,07,14,05,28,2.50
2021,07,14,05,29,0.90
2021,07,14,05,30,1.40
2021,07,14,05,31,3.20
2021,07,14,05,32,2.20
2021,07,14,05,33,1.20
2021,07,14,05,34,0.20
2021,07,14,05,35,1.60
2021,07,14,05,36,0.50
2021,07,14,05,37,3.60
2021,07,14,05,38,1.90
2021,07,14,05,39,4.50
2021,07,14,05,40,3.20
2021,07,14,05,41,4.00
2021,07,14,05,42,4.30
2021,07,14,05,43,6.30
2021,07,14,05,44,5.90
2021,07,14,05,45,3.60
2021,07,14,05,46,3.60
2021,07,14,05,47,3.70
2021,07,14,05,48,4.40
2021,07,14,05,49,3.60
2021,07,14,05,50,2.80
2021,07,14,05,51,0.60
2021,07,14,05,52,1.80
2021,07,14,05,53,0.10
2021,07,14,05,54,0.10
2021,07,14,05,55,0.20
2021,07,14,05,56,0.00
2021,07,14,05,57,0.40
2021,07,14,05,58,0.60
2021,07,14,05,59,0.10
2021,07,14,06,00,0.40
2021,07,14,06,01,0.00
2021,07,14,06,02,0.00
2021,07,14,06,03,0.00
2021,07,14,06,04,0.00
2021,07,14,06,05,0.00
2021,07,14,06,06,0.20
2021,07,14,06,07,0.00
2021,07,14,06,08,0.10
2021,07,14,06,09,0.10
2021,07,14,06,10,0.10
2021,07,14,06,11,0.00
2021,07,14,06,12,0.10
2021,07,14,06,13,0.00
2021,07,14,06,14,0.00
2021,07,14,06,15,0.00
2021,07,14,06,16,0.00
2021,07,14,06,17,0.00
2021,07,14,06,18,0.00
2021,07,14,06,19,0.00
2021,07,14,06,20,0.10
2021,07,14,06,21,0.00
2021,07,14,06,22,0.00
2021,07,14,06,23,0.00
2021,07,14,06,24,0.10
2021,07,14,06,25,0.00
2021,07,14,06,26,0.00
2021,07,14,06,27,0.00
2021,07,14,06,28,0.00
2021,07,14,06,29,0.00
2021,07,14,06,30,0.00
2021,07,14,06,31,0.00
2021,07,14,06,32,0.80
2021,07,14,06,33,0.80
2021,07,14,06,34,0.40
2021,07,14,06,35,0.40
2021,07,14,06,36,0.80
2021,07,14,06,37,0.10
2021,07,14,06,38,1.40
2021,07,14,06,39,0.10
2021,07,14,06,40,0.20
2021,07,14,06,41,1.30
2021,07,14,06,42,0.00
2021,07,14,06,43,0.10
2021,07,14,06,44,0.00
2021,07,14,06,45,0.10
2021,07,14,06,46,0.10
2021,07,14,06,47,0.00
2021,07,14,06,48,0.10
2021,07,14,06,49,0.10
2021,07,14,06,50,0.00
2021,07,14,06,51,0.00
2021,07,14,06,52,0.00
2021,07,14,06,53,0.10
2021,07,14,06,54,0.00
2021,07,14,06,55,0.10
2021,07,14,06,56,0.00
2021,07,14,06,57,0.10
2021,07,14,06,58,3.50
2021,07,14,06,59,0.40
2021,07,14,07,00,0.40
2021,07,14,07,01,0.00
2021,07,14,07,02,0.70
2021,07,14,07,03,1.10
2021,07,14,07,04,0.10
2021,07,14,07,05,0.10
2021,07,14,07,06,1.10
2021,07,14,07,07,1.70
2021,07,14,07,08,1.30
2021,07,14,07,09,2.70
2021,07,14,07,10,4.30
2021,07,14,07,11,6.80
2021,07,14,07,12,4.10
2021,07,14,07,13,7.10
2021,07,14,07,14,6.60
2021,07,14,07,15,9.20
2021,07,14,07,16,8.20
2021,07,14,07,17,7.80
2021,07,14,07,18,8.10
2021,07,14,07,19,6.90
2021,07,14,07,20,7.90
2021,07,14,07,21,7.80
2021,07,14,07,22,7.60
2021,07,14,07,23,7.40
2021,07,14,07,24,6.50
2021,07,14,07,25,7.10
2021,07,14,07,26,7.20
2021,07,14,07,27,9.80
2021,07,14,07,28,9.50
2021,07,14,07,29,8.70
2021,07,14,07,30,7.10
2021,07,14,07,31,6.90
2021,07,14,07,32,8.20
2021,07,14,07,33,8.20
2021,07,14,07,34,7.90
2021,07,14,07,35,8.50
2021,07,14,07,36,7.90
2021,07,14,07,37,6.80
2021,07,14,07,38,6.60
2021,07,14,07,39,8.70
2021,07,14,07,40,7.80
2021,07,14,07,41,8.20
2021,07,14,07,42,7.20
2021,07,14,07,43,7.60
2021,07,14,07,44,8.90
2021,07,14,07,45,8.90
2021,07,14,07,46,7.50
2021,07,14,07,47,7.80
2021,07,14,07,48,9.10
2021,07,14,07,49,9.70
2021,07,14,07,50,8.90
2021,07,14,07,51,9.30
2021,07,14,07,52,8.00
2021,07,14,07,53,7.30
2021,07,14,07,54,8.20
2021,07,14,07,55,7.10
2021,07,14,07,56,6.90
2021,07,14,07,57,6.60
2021,07,14,07,58,7.50
2021,07,14,07,59,7.10
2021,07,14,08,00,4.80
2021,07,14,08,01,6.10
2021,07,14,08,02,6.50
2021,07,14,08,03,7.80
2021,07,14,08,04,7.10
2021,07,14,08,05,3.60
2021,07,14,08,06,3.00
2021,07,14,08,07,3.90
2021,07,14,08,08,5.60
2021,07,14,08,09,6.50
2021,07,14,08,10,4.80
2021,07,14,08,11,4.50
2021,07,14,08,12,4.90
2021,07,14,08,13,5.60
2021,07,14,08,14,5.90
2021,07,14,08,15,7.60
2021,07,14,08,16,7.80
2021,07,14,08,17,6.70
2021,07,14,08,18,5.80
2021,07,14,08,19,7.50
2021,07,14,08,20,5.40
2021,07,14,08,21,4.80
2021,07,14,08,22,5.60
2021,07,14,08,23,6.40
2021,07,14,08,24,5.40
2021,07,14,08,25,6.90
2021,07,14,08,26,6.60
2021,07,14,08,27,5.10
2021,07,14,08,28,6.80
2021,07,14,08,29,7.80
2021,07,14,08,30,8.30
2021,07,14,08,31,7.60
2021,07,14,08,32,9.70
2021,07,14,08,33,9.70
2021,07,14,08,34,9.70
2021,07,14,08,35,10.80
2021,07,14,08,36,10.50
2021,07,14,08,37,9.20
2021,07,14,08,38,9.30
2021,07,14,08,39,9.10
2021,07,14,08,40,8.70
2021,07,14,08,41,9.60
2021,07,14,08,42,9.70
2021,07,14,08,43,9.20
2021,07,14,08,44,9.70
2021,07,14,08,45,8.70
2021,07,14,08,46,8.70
2021,07,14,08,47,9.40
2021,07,14,08,48,8.70
2021,07,14,08,49,9.20
2021,07,14,08,50,8.70
2021,07,14,08,51,9.10
2021,07,14,08,52,9.60
2021,07,14,08,53,9.80
2021,07,14,08,54,8.90
2021,07,14,08,55,8.30
2021,07,14,08,56,9.40
2021,07,14,08,57,9.70
2021,07,14,08,58,8.90
2021,07,14,08,59,8.10
2021,07,14,09,00,7.00
2021,07,14,09,01,10.00
2021,07,14,09,02,11.00
2021,07,14,09,03,8.40
2021,07,14,09,04,11.80
2021,07,14,09,05,10.30
2021,07,14,09,06,11.50
2021,07,14,09,07,12.20
2021,07,14,09,08,11.60
2021,07,14,09,09,11.50
2021,07,14,09,10,11.20
2021,07,14,09,11,10.80
2021,07,14,09,12,10.60
2021,07,14,09,13,12.80
2021,07,14,09,14,12.50
2021,07,14,09,15,10.60
2021,07,14,09,16,11.20
2021,07,14,09,17,10.80
2021,07,14,09,18,11.30
2021,07,14,09,19,10.40
2021,07,14,09,20,10.30
2021,07,14,09,21,11.00
2021,07,14,09,22,11.60
2021,07,14,09,23,11.00
2021,07,14,09,24,11.60
2021,07,14,09,25,10.70
2021,07,14,09,26,11.10
2021,07,14,09,27,10.40
2021,07,14,09,28,13.00
2021,07,14,09,29,12.20
2021,07,14,09,30,11.30
2021,07,14,09,31,12.50
2021,07,14,09,32,12.40
2021,07,14,09,33,12.70
2021,07,14,09,34,12.10
2021,07,14,09,35,13.20
2021,07,14,09,36,11.50
2021,07,14,09,37,10.90
2021,07,14,09,38,11.80
2021,07,14,09,39,11.50
2021,07,14,09,40,11.30
2021,07,14,09,41,12.30
2021,07,14,09,42,12.70
2021,07,14,09,43,11.70
2021,07,14,09,44,12.60
2021,07,14,09,45,11.10
2021,07,14,09,46,10.50
2021,07,14,09,47,10.70
2021,07,14,09,48,9.70
2021,07,14,09,49,10.10
2021,07,14,09,50,10.30
2021,07,14,09,51,9.50
2021,07,14,09,52,9.10
2021,07,14,09,53,8.10
2021,07,14,09,54,7.10
2021,07,14,09,55,8.50
2021,07,14,09,56,9.80
2021,07,14,09,57,10.00
2021,07,14,09,58,10.70
2021,07,14,09,59,10.50
2021,07,14,10,00,11.10
2021,07,14,10,01,12.40
2021,07,14,10,02,12.70
2021,07,14,10,03,12.90
2021,07,14,10,04,13.20
2021,07,14,10,05,13.30
2021,07,14,10,06,13.50
2021,07,14,10,07,13.90
2021,07,14,10,08,13.30
2021,07,14,10,09,13.20
2021,07,14,10,10,12.80
2021,07,14,10,11,13.30
2021,07,14,10,12,13.60
2021,07,14,10,13,12.90
2021,07,14,10,14,12.10
2021,07,14,10,15,11.60
2021,07,14,10,16,13.30
2021,07,14,10,17,12.50
2021,07,14,10,18,13.70
2021,07,14,10,19,14.10
2021,07,14,10,20,12.80
2021,07,14,10,21,10.30
2021,07,14,10,22,10.90
2021,07,14,10,23,11.30
2021,07,14,10,24,11.20
2021,07,14,10,25,12.30
2021,07,14,10,26,12.10
2021,07,14,10,27,12.00
2021,07,14,10,28,12.10
2021,07,14,10,29,12.80
2021,07,14,10,30,11.80
2021,07,14,10,31,12.60
2021,07,14,10,32,12.00
2021,07,14,10,33,12.70
2021,07,14,10,34,11.50
2021,07,14,10,35,11.60
2021,07,14,10,36,12.00
2021,07,14,10,37,10.00
2021,07,14,10,38,12.30
2021,07,14,10,39,12.50
2021,07,14,10,40,12.70
2021,07,14,10,41,13.80
2021,07,14,10,42,14.50
2021,07,14,10,43,14.70
2021,07,14,10,44,13.30
2021,07,14,10,45,14.20
2021,07,14,10,46,14.00
2021,07,14,10,47,13.00
2021,07,14,10,48,12.10
2021,07,14,10,49,11.80
2021,07,14,10,50,12.30
2021,07,14,10,51,12.90
2021,07,14,10,52,11.60
2021,07,14,10,53,11.90
2021,07,14,10,54,11.50
2021,07,14,10,55,12.50
2021,07,14,10,56,12.30
2021,07,14,10,57,12.50
2021,07,14,10,58,11.70
2021,07,14,10,59,13.70
2021,07,14,11,00,14.50
2021,07,14,11,01,13.80
2021,07,14,11,02,13.10
2021,07,14,11,03,11.80
2021,07,14,11,04,14.10
2021,07,14,11,05,14.20
2021,07,14,11,06,13.80
2021,07,14,11,07,11.80
2021,07,14,11,08,12.80
2021,07,14,11,09,13.40
2021,07,14,11,10,13.10
2021,07,14,11,11,11.30
2021,07,14,11,12,13.10
2021,07,14,11,13,11.50
2021,07,14,11,14,11.10
2021,07,14,11,15,11.80
2021,07,14,11,16,11.10
2021,07,14,11,17,10.60
2021,07,14,11,18,9.40
2021,07,14,11,19,9.20
2021,07,14,11,20,9.20
2021,07,14,11,21,7.30
2021,07,14,11,22,8.90
2021,07,14,11,23,5.00
2021,07,14,11,24,6.90
2021,07,14,11,25,8.20
2021,07,14,11,26,8.20
2021,07,14,11,27,7.60
2021,07,14,11,28,0.60
2021,07,14,11,29,7.40
2021,07,14,11,30,6.80
2021,07,14,11,31,2.00
2021,07,14,11,32,3.30
2021,07,14,11,33,10.00
2021,07,14,11,34,9.30
2021,07,14,11,35,7.70
2021,07,14,11,36,9.90
2021,07,14,11,37,8.60
2021,07,14,11,38,9.20
2021,07,14,11,39,8.40
2021,07,14,11,40,12.20
2021,07,14,11,41,12.30
2021,07,14,11,42,10.10
2021,07,14,11,43,9.30
2021,07,14,11,44,10.20
2021,07,14,11,45,10.60
2021,07,14,11,46,11.40
2021,07,14,11,47,13.30
2021,07,14,11,48,11.60
2021,07,14,11,49,8.50
2021,07,14,11,50,3.30
2021,07,14,11,51,8.10
2021,07,14,11,52,7.90
2021,07,14,11,53,11.80
2021,07,14,11,54,10.30
2021,07,14,11,55,9.20
2021,07,14,11,56,10.40
2021,07,14,11,57,9.00
2021,07,14,11,58,9.80
2021,07,14,11,59,9.00
2021,07,14,12,00,11.00
2021,07,14,12,01,10.60
2021,07,14,12,02,9.20
2021,07,14,12,03,7.60
2021,07,14,12,04,9.70
2021,07,14,12,05,11.30
2021,07,14,12,06,6.80
2021,07,14,12,07,11.00
2021,07,14,12,08,10.20
2021,07,14,12,09,9.00
2021,07,14,12,10,8.90
2021,07,14,12,11,8.80
2021,07,14,12,12,7.70
2021,07,14,12,13,10.30
2021,07,14,12,14,11.00
2021,07,14,12,15,11.00
2021,07,14,12,16,9.30
2021,07,14,12,17,5.80
2021,07,14,12,18,4.00
2021,07,14,12,19,9.70
2021,07,14,12,20,10.40
2021,07,14,12,21,8.90
2021,07,14,12,22,10.00
2021,07,14,12,23,10.00
2021,07,14,12,24,9.70
2021,07,14,12,25,11.00
2021,07,14,12,26,10.60
2021,07,14,12,27,9.40
2021,07,14,12,28,10.50
2021,07,14,12,29,11.60
2021,07,14,12,30,11.90
2021,07,14,12,31,7.70
2021,07,14,12,32,14.40
2021,07,14,12,33,15.10
2021,07,14,12,34,12.40
2021,07,14,12,35,15.40
2021,07,14,12,36,11.90
2021,07,14,12,37,14.40
2021,07,14,12,38,8.90
2021,07,14,12,39,13.80
2021,07,14,12,40,13.70
2021,07,14,12,41,10.10
2021,07,14,12,42,12.60
2021,07,14,12,43,15.40
2021,07,14,12,44,11.10
2021,07,14,12,45,15.30
2021,07,14,12,46,15.70
2021,07,14,12,47,13.30
2021,07,14,12,48,12.60
2021,07,14,12,49,12.90
2021,07,14,12,50,12.30
2021,07,14,12,51,14.60
2021,07,14,12,52,16.20
2021,07,14,12,53,14.20
2021,07,14,12,54,12.40
2021,07,14,12,55,14.70
2021,07,14,12,56,12.00
2021,07,14,12,57,11.60
2021,07,14,12,58,12.90
2021,07,14,12,59,14.20
2021,07,14,13,00,12.90
2021,07,14,13,01,15.50
2021,07,14,13,02,12.80
2021,07,14,13,03,11.00
2021,07,14,13,04,13.40
2021,07,14,13,05,15.70
2021,07,14,13,06,16.20
2021,07,14,13,07,16.60
2021,07,14,13,08,11.80
2021,07,14,13,09,14.00
2021,07,14,13,10,20.00
2021,07,14,13,11,15.80
2021,07,14,13,12,10.80
2021,07,14,13,13,11.20
2021,07,14,13,14,8.40
2021,07,14,13,15,13.90
2021,07,14,13,16,18.40
2021,07,14,13,17,16.30
2021,07,14,13,18,17.10
2021,07,14,13,19,16.40
2021,07,14,13,20,15.90
2021,07,14,13,21,14.90
2021,07,14,13,22,18.40
2021,07,14,13,23,20.40
2021,07,14,13,24,17.50
2021,07,14,13,25,20.10
2021,07,14,13,26,17.30
2021,07,14,13,27,20.10
2021,07,14,13,28,22.40
2021,07,14,13,29,18.10
2021,07,14,13,30,14.20
2021,07,14,13,31,13.60
2021,07,14,13,32,19.70
2021,07,14,13,33,22.20
2021,07,14,13,34,18.70
2021,07,14,13,35,15.00
2021,07,14,13,36,18.10
2021,07,14,13,37,18.60
2021,07,14,13,38,17.70
2021,07,14,13,39,19.30
2021,07,14,13,40,20.70
2021,07,14,13,41,14.40
2021,07,14,13,42,17.10
2021,07,14,13,43,15.40
2021,07,14,13,44,14.40
2021,07,14,13,45,11.00
2021,07,14,13,46,10.10
2021,07,14,13,47,18.10
2021,07,14,13,48,19.20
2021,07,14,13,49,20.00
2021,07,14,13,50,19.50
2021,07,14,13,51,22.20
2021,07,14,13,52,21.80
2021,07,14,13,53,17.40
2021,07,14,13,54,21.90
2021,07,14,13,55,20.40
2021,07,14,13,56,21.00
2021,07,14,13,57,14.70
2021,07,14,13,58,17.50
2021,07,14,13,59,14.50
2021,07,14,14,00,14.10
2021,07,14,14,01,17.50
2021,07,14,14,02,16.30
2021,07,14,14,03,18.80
2021,07,14,14,04,14.40
2021,07,14,14,05,19.80
2021,07,14,14,06,14.60
2021,07,14,14,07,17.80
2021,07,14,14,08,11.10
2021,07,14,14,09,18.60
2021,07,14,14,10,12.90
2021,07,14,14,11,16.50
2021,07,14,14,12,17.50
2021,07,14,14,13,15.60
2021,07,14,14,14,10.80
2021,07,14,14,15,15.80
2021,07,14,14,16,18.80
2021,07,14,14,17,26.20
2021,07,14,14,18,20.00
2021,07,14,14,19,19.60
2021,07,14,14,20,19.50
2021,07,14,14,21,17.40
2021,07,14,14,22,20.20
2021,07,14,14,23,16.80
2021,07,14,14,24,23.50
2021,07,14,14,25,18.60
2021,07,14,14,26,20.60
2021,07,14,14,27,23.80
2021,07,14,14,28,15.60
2021,07,14,14,29,17.60
2021,07,14,14,30,15.40
2021,07,14,14,31,16.10
2021,07,14,14,32,15.40
2021,07,14,14,33,14.20
2021,07,14,14,34,17.10
2021,07,14,14,35,20.70
2021,07,14,14,36,18.00
2021,07,14,14,37,18.10
2021,07,14,14,38,16.00
2021,07,14,14,39,19.00
2021,07,14,14,40,16.60
2021,07,14,14,41,18.30
2021,07,14,14,42,17.70
2021,07,14,14,43,17.70
2021,07,14,14,44,17.70
2021,07,14,14,45,18.00
2021,07,14,14,46,18.30
2021,07,14,14,47,18.40
2021,07,14,14,48,21.00
2021,07,14,14,49,20.60
2021,07,14,14,50,17.70
2021,07,14,14,51,19.60
2021,07,14,14,52,19.70
2021,07,14,14,53,20.60
2021,07,14,14,54,25.80
2021,07,14,14,55,24.60
2021,07,14,14,56,22.40
2021,07,14,14,57,19.50
2021,07,14,14,58,17.60
2021,07,14,14,59,17.00
2021,07,14,15,00,20.20
2021,07,14,15,01,19.50
2021,07,14,15,02,19.40
2021,07,14,15,03,18.30
2021,07,14,15,04,17.00
2021,07,14,15,05,22.60
2021,07,14,15,06,19.60
2021,07,14,15,07,21.00
2021,07,14,15,08,23.30
2021,07,14,15,09,26.00
2021,07,14,15,10,25.70
2021,07,14,15,11,22.10
2021,07,14,15,12,18.10
2021,07,14,15,13,19.40
2021,07,14,15,14,20.20
2021,07,14,15,15,21.90
2021,07,14,15,16,23.80
2021,07,14,15,17,28.10
2021,07,14,15,18,20.90
2021,07,14,15,19,22.00
2021,07,14,15,20,19.50
2021,07,14,15,21,18.40
2021,07,14,15,22,18.20
2021,07,14,15,23,17.90
2021,07,14,15,24,21.60
2021,07,14,15,25,16.00
2021,07,14,15,26,18.70
2021,07,14,15,27,23.80
2021,07,14,15,28,18.00
2021,07,14,15,29,20.50
2021,07,14,15,30,20.60
2021,07,14,15,31,22.00
2021,07,14,15,32,18.90
2021,07,14,15,33,19.70
2021,07,14,15,34,19.70
2021,07,14,15,35,19.30
2021,07,14,15,36,14.70
2021,07,14,15,37,20.50
2021,07,14,15,38,23.30
2021,07,14,15,39,23.80
2021,07,14,15,40,19.10
2021,07,14,15,41,17.50
2021,07,14,15,42,21.40
2021,07,14,15,43,20.80
2021,07,14,15,44,19.10
2021,07,14,15,45,18.20
2021,07,14,15,46,20.70
2021,07,14,15,47,17.50
2021,07,14,15,48,16.20
2021,07,14,15,49,20.10
2021,07,14,15,50,16.50
2021,07,14,15,51,19.50
2021,07,14,15,52,19.20
2021,07,14,15,53,20.70
2021,07,14,15,54,19.50
2021,07,14,15,55,18.00
2021,07,14,15,56,21.30
2021,07,14,15,57,18.30
2021,07,14,15,58,17.00
2021,07,14,15,59,18.30
2021,07,14,16,00,17.50
2021,07,14,16,01,17.10
2021,07,14,16,02,19.70
2021,07,14,16,03,20.90
2021,07,14,16,04,19.90
2021,07,14,16,05,18.20
2021,07,14,16,06,16.80
2021,07,14,16,07,15.90
2021,07,14,16,08,15.80
2021,07,14,16,09,19.10
2021,07,14,16,10,21.20
2021,07,14,16,11,15.60
2021,07,14,16,12,21.80
2021,07,14,16,13,14.50
2021,07,14,16,14,17.90
2021,07,14,16,15,20.40
2021,07,14,16,16,17.10
2021,07,14,16,17,16.70
2021,07,14,16,18,17.30
2021,07,14,16,19,17.10
2021,07,14,16,20,18.20
2021,07,14,16,21,16.20
2021,07,14,16,22,18.30
2021,07,14,16,23,17.40
2021,07,14,16,24,16.00
2021,07,14,16,25,16.70
2021,07,14,16,26,15.70
2021,07,14,16,27,17.20
2021,07,14,16,28,17.30
2021,07,14,16,29,21.20
2021,07,14,16,30,17.50
2021,07,14,16,31,17.60
2021,07,14,16,32,13.30
2021,07,14,16,33,16.20
2021,07,14,16,34,15.50
2021,07,14,16,35,18.20
2021,07,14,16,36,20.20
2021,07,14,16,37,17.20
2021,07,14,16,38,17.00
2021,07,14,16,39,17.80
2021,07,14,16,40,18.80
2021,07,14,16,41,17.60
2021,07,14,16,42,20.40
2021,07,14,16,43,18.80
2021,07,14,16,44,16.90
2021,07,14,16,45,19.40
2021,07,14,16,46,18.10
2021,07,14,16,47,17.50
2021,07,14,16,48,16.10
2021,07,14,16,49,17.90
2021,07,14,16,50,17.30
2021,07,14,16,51,18.20
2021,07,14,16,52,16.90
2021,07,14,16,53,17.20
2021,07,14,16,54,21.30
2021,07,14,16,55,21.00
2021,07,14,16,56,23.20
2021,07,14,16,57,22.90
2021,07,14,16,58,18.20
2021,07,14,16,59,17.50
2021,07,14,17,00,18.30
2021,07,14,17,01,20.10
2021,07,14,17,02,16.70
2021,07,14,17,03,17.50
2021,07,14,17,04,15.20
2021,07,14,17,05,17.90
2021,07,14,17,06,17.60
2021,07,14,17,07,17.50
2021,07,14,17,08,16.60
2021,07,14,17,09,18.10
2021,07,14,17,10,18.90
2021,07,14,17,11,18.40
2021,07,14,17,12,15.80
2021,07,14,17,13,18.90
2021,07,14,17,14,20.20
2021,07,14,17,15,18.10
2021,07,14,17,16,17.30
2021,07,14,17,17,17.00
2021,07,14,17,18,19.00
2021,07,14,17,19,17.40
2021,07,14,17,20,17.50
2021,07,14,17,21,16.70
2021,07,14,17,22,17.40
2021,07,14,17,23,18.40
2021,07,14,17,24,15.60
2021,07,14,17,25,13.90
2021,07,14,17,26,18.60
2021,07,14,17,27,16.80
2021,07,14,17,28,18.60
2021,07,14,17,29,17.40
2021,07,14,17,30,17.00
2021,07,14,17,31,19.10
2021,07,14,17,32,20.20
2021,07,14,17,33,20.90
2021,07,14,17,34,21.80
2021,07,14,17,35,20.60
2021,07,14,17,36,22.50
2021,07,14,17,37,24.70
2021,07,14,17,38,22.20
2021,07,14,17,39,20.50
2021,07,14,17,40,20.30
2021,07,14,17,41,18.30
2021,07,14,17,42,17.60
2021,07,14,17,43,17.80
2021,07,14,17,44,21.40